This is the latest recevied weather packets stored in our database for station/object KE8RXN. If no packets are shown the sender has not sent any weather packets the latest 10 day(s).
| Time | Temp. | Humidity | Pressure | Rain* | Wind** | Luminosity | Snow |
|---|---|---|---|---|---|---|---|
| 1777998536 | 12.78° C | 37% | 1010.7 hPa | 0 mm | - | 787 W/m² | - |
| 1777998232 | 12.22° C | 35% | 1011 hPa | 0 mm | - | 881 W/m² | - |
| 1777997929 | 12.22° C | 35% | 1011 hPa | 0 mm | - | 869 W/m² | - |
| 1777997626 | 12.22° C | 38% | 1010.7 hPa | 0 mm | - | 712 W/m² | - |
| 1777997323 | 12.22° C | 37% | 1010.9 hPa | 0 mm | - | 622 W/m² | - |
| 1777997021 | 12.22° C | 36% | 1011 hPa | 0 mm | - | 594 W/m² | - |
| 1777996718 | 11.67° C | 35% | 1011 hPa | 0 mm | - | 898 W/m² | - |
| 1777996413 | 12.22° C | 35% | 1011.2 hPa | 0 mm | - | 874 W/m² | - |
| 1777996110 | 11.67° C | 36% | 1011.3 hPa | 0 mm | - | 778 W/m² | - |
| 1777995806 | 11.67° C | 37% | 1010.9 hPa | 0 mm | - | 587 W/m² | - |
| 1777995502 | 12.22° C | 38% | 1010.9 hPa | 0 mm | - | 761 W/m² | - |
| 1777995200 | 11.67° C | 37% | 1011.1 hPa | 0 mm | - | 566 W/m² | - |
| 1777994897 | 11.67° C | 37% | 1011.2 hPa | 0 mm | - | 413 W/m² | - |
| 1777994594 | 12.22° C | 39% | 1011.2 hPa | 0 mm | - | 311 W/m² | - |
| 1777994288 | 11.67° C | 40% | 1011.1 hPa | 0 mm | - | 704 W/m² | - |
| 1777993985 | 11.67° C | 41% | 1011.3 hPa | 0 mm | - | 589 W/m² | - |
| 1777993682 | 11.11° C | 41% | 1011.3 hPa | 0 mm | - | 639 W/m² | - |
| 1777993379 | 11.11° C | 44% | 1011.2 hPa | 0 mm | - | 507 W/m² | - |
| 1777993074 | 11.11° C | 43% | 1011.1 hPa | 0 mm | - | 309 W/m² | - |
| 1777992773 | 10.56° C | 45% | 1011.1 hPa | 0 mm | - | 373 W/m² | - |
| 1777992469 | 10.56° C | 44% | 1011 hPa | 0 mm | - | 372 W/m² | - |
| 1777992168 | 10° C | 45% | 1011.3 hPa | 0 mm | - | 346 W/m² | - |
| 1777991864 | 10.56° C | 45% | 1011.2 hPa | 0 mm | - | 269 W/m² | - |
| 1777991562 | 10.56° C | 47% | 1011.2 hPa | 0 mm | - | 511 W/m² | - |
| 1777991259 | 10° C | 50% | 1011.1 hPa | 0 mm | - | 528 W/m² | - |
* Rain latest hour (hover to see other rain measurements)
** Current wind speed in m/s (hover to see current wind gust speed)